Flag for Germany Weather past 2 weeks in Altenburg, Thuringia, Germany

Now
45 °F

Broken clouds.


Feels Like: 41 °F
Forecast: 34 / 58 °F
Wind: 6 mph from Northwest

Location: Altenburg Nobitz

Current Time: Apr 28, 2015 at 2:50:47 PM

Latest Report: Apr 28, 2015 at 2:20 PM


Visibility: N/A

Pressure: 29.95 "Hg

Humidity: 93%

Dew point: 43 °F

Location of AltenburgLocation

Historic Weather in Altenburg — Graph

°F

Altenburg temperature yesterday

Maximum temperature yesterday: 68 °F (at 11:50 AM)
Minimum temperature yesterday: 50 °F (at 5:50 PM)
Average temperature yesterday: 58 °F

Past Weeks' High & Low Weather Summary

 TemperatureHumidityPressure
High73 °F (Apr 15, 3:50 PM)100% (Apr 27, 3:20 PM)30.36 "Hg (Apr 27, 3:20 PM)
Low39 °F (Apr 28, 8:50 AM)21% (Apr 21, 3:50 PM)29.59 "Hg (Apr 27, 8:20 AM)
Average56 °F63%30.03 "Hg
* Reported Apr 15 8:20 AM — Apr 28 1:20 PM, Altenburg, Weather by CustomWeather, © 2015

Note: Actual official high and low records may vary slightly from our data, if they occured in-between our weather recording intervals... More about our weather records

Advertising

Altenburg weather history for previous 24 hours

 ConditionsComfort  
Time TempWeatherWind HumidityBarometerVisibility
1:20 PM
Tue, Apr 28
43 °FBroken clouds.5 mph93%29.92 "HgN/A
12:50 PM43 °FBroken clouds.7 mph93%29.92 "HgN/A
12:20 PM41 °FBroken clouds.8 mph100%29.92 "HgN/A
11:50 AM41 °FLight rain. Mostly cloudy.5 mph100%29.92 "HgN/A
11:20 AM41 °FLight rain. Mostly cloudy.6 mph100%29.89 "HgN/A
10:50 AM41 °FLight rain. Mostly cloudy.6 mph100%29.89 "Hg6 mi
10:20 AM39 °FLight rain. Mostly cloudy.9 mph100%29.86 "Hg6 mi
9:50 AM39 °FLight rain. Mostly cloudy.9 mph100%29.86 "Hg5 mi
9:20 AM39 °FLight rain. Mostly cloudy.10 mph100%29.83 "Hg6 mi
8:50 AM39 °FLight rain. Mostly cloudy.9 mph100%29.83 "Hg5 mi
8:20 AM41 °FLight rain. Mostly cloudy.12 mph100%29.83 "Hg4 mi
7:50 PM
Mon, Apr 27
50 °FLight rain. Partly sunny.13 mph100%29.65 "Hg5 mi
7:20 PM50 °FLight rain. Partly sunny.13 mph100%29.65 "Hg6 mi
6:50 PM50 °FLight rain. Partly sunny.15 mph100%29.62 "Hg5 mi
6:20 PM50 °FLight rain. Broken clouds.12 mph100%29.65 "Hg4 mi
5:50 PM50 °FLight rain. Broken clouds.6 mph100%29.65 "Hg4 mi
5:20 PM52 °FLight rain. Partly sunny.8 mph100%29.65 "Hg6 mi
4:50 PM52 °FLight rain. Partly sunny.14 mph100%29.62 "HgN/A
4:20 PM52 °FLight rain. Partly sunny.12 mph100%29.62 "HgN/A
3:50 PM52 °FSprinkles. Partly sunny.10 mph100%29.62 "Hg6 mi
3:20 PM54 °FSprinkles. Partly sunny.14 mph100%29.62 "Hg5 mi
2:50 PM55 °FScattered showers. Partly sunny.18 mph94%29.59 "Hg5 mi
2:20 PM57 °FScattered showers. Broken clouds.20 mph88%29.59 "Hg5 mi
Weather by CustomWeather, © 2015

See weather overviewHow to use our weather pages